AirNav   Pilot Hours Calculator
 
 423 users online  

KLOR Lowe Army Heliport (Fort Rucker)
Fort Rucker/Ozark, Alabama, USA

GOING TO FORT RUCKER/OZARK?


FAA INFORMATION EFFECTIVE 07 NOVEMBER 2019

Location

FAA Identifier: LOR
Lat/Long: 31-21-21.0000N 085-45-04.2000W
31-21.350000N 085-45.070000W
31.3558333,-85.7511667
(estimated)
Elevation: 294.3 ft. / 90 m (estimated)
Variation: 03W (2010)
From city: 3 miles W of FORT RUCKER OZARK, AL
Time zone: UTC -6 (UTC -5 during Daylight Saving Time)
Zip code: 36362

Heliport Operations

Heliport use: Private use. Permission required prior to landing
Control tower: yes
ARTCC: JACKSONVILLE CENTER
FSS: ANNISTON FLIGHT SERVICE STATION
NOTAMs facility: OZR (NOTAM-D service available)
Attendance: MON-FRI 0700-0100, EXCP HOL
Pattern altitude: 1094.3 ft. MSL
Segmented circle: no
Lights: SS-SR
Beacon: white-green (lighted land airport)
Operates sunset to sunrise.

Heliport Communications

ATIS: 361.1
LOWE GROUND: 357.15 [0700-0100 MON-FRI EXCP HOLS]
LOWE TOWER: 141.3 289.15 46.95FM [0700-0100 MON-FRI EXCP HOLS]
CAIRNS APPROACH: 133.45
CAIRNS DEPARTURE: 133.45
EMERG: 243.0
WX AWOS-3PT at EDN (8 nm SW): 118.9 (334-347-3524)
WX ASOS at DHN (16 nm E): PHONE 334-983-5999
  • APCH/DEP SVC PRVDD BY JACKSONVILLE ARTCC ON FREQS 134.3/353.5 (DOTHAN RCAG) WHEN CAIRNS APCH/DEP CLSD.

Nearby radio navigation aids

VOR radial/distance  VOR name  Freq  Var
HEYr261/(5.2)HANCHEY VOR110.6003W
OZRr349/5.4CAIRNS VOR/DME111.2003W
EDNr068/(8.5)ENTERPRISE VOR116.6003W
RRSr283/16.9WIREGRASS VORTAC111.6002E

 
NDB name  Hdg/Dist  Freq  Var  ID
LOWEat field26903WLOR .-.. --- .-.
HANCHEY259/5.122103WHYE .... -.-- .
RUCKR026/8.521203WOZ --- --..
BOLL WEEVIL088/11.935203WBVG -... ...- --.
JUDD087/32.926402WJUY .--- ..- -.--
BLOOD152/33.836504WTOI - --- ..
SOYYA319/39.732902WSMY ... -- -.--

Heliport Services

Runway Information

Helipad H1

Dimensions: 50 x 50 ft. / 15 x 15 m
Surface: asphalt
Latitude: 31-21.624517N
Longitude: 085-45.336950W
Elevation: 282.2 ft.
Traffic pattern: leftleft

Helipad H10

Dimensions: 50 x 50 ft. / 15 x 15 m
Surface: asphalt/concrete
Latitude: 31-21.578583N
Longitude: 085-45.336433W
Elevation: 282.5 ft.
Traffic pattern: leftleft

Helipad H11

Dimensions: 50 x 50 ft. / 15 x 15 m
Surface: asphalt
Latitude: 31-21.288733N
Longitude: 085-44.763017W
Elevation: 242.8 ft.
Traffic pattern: leftleft

Helipad H12

Dimensions: 50 x 50 ft. / 15 x 15 m
Surface: asphalt
Latitude: 31-20.907567N
Longitude: 085-44.863250W
Elevation: 243.5 ft.
Traffic pattern: leftleft

Helipad H2

Dimensions: 50 x 50 ft. / 15 x 15 m
Surface: asphalt
Latitude: 31-21.529133N
Longitude: 085-45.335850W
Elevation: 280.8 ft.
Traffic pattern: leftleft

Helipad H3

Dimensions: 50 x 50 ft. / 15 x 15 m
Surface: asphalt
Latitude: 31-21.498700N
Longitude: 085-44.886950W
Elevation: 273.9 ft.
Traffic pattern: leftleft

Helipad H4

Dimensions: 50 x 50 ft. / 15 x 15 m
Surface: asphalt
Latitude: 31-21.318950N
Longitude: 085-44.787000W
Elevation: 243.1 ft.
Traffic pattern: leftleft

Helipad H5

Dimensions: 50 x 50 ft. / 15 x 15 m
Surface: asphalt
Latitude: 31-20.907600N
Longitude: 085-44.905550W
Elevation: 243.5 ft.
Traffic pattern: leftleft

Helipad H6

Dimensions: 50 x 50 ft. / 15 x 15 m
Surface: asphalt
Latitude: 31-21.168317N
Longitude: 085-45.125317W
Elevation: 240.6 ft.
Traffic pattern: leftleft

Helipad H7

Dimensions: 50 x 50 ft. / 15 x 15 m
Surface: asphalt
Latitude: 31-21.135150N
Longitude: 085-45.099467W
Elevation: 239.3 ft.
Traffic pattern: leftleft

Helipad H8

Dimensions: 50 x 50 ft. / 15 x 15 m
Surface: asphalt
Latitude: 31-21.591100N
Longitude: 085-44.935900W
Elevation: 293.9 ft.
Traffic pattern: leftleft

Helipad H9

Dimensions: 50 x 50 ft. / 15 x 15 m
Surface: asphalt
Latitude: 31-21.103850N
Longitude: 085-45.074067W
Elevation: 238.7 ft.
Traffic pattern: leftleft

Heliport Ownership and Management from official FAA records

Ownership: U.S. Army
Owner: US ARMY LOWE ARMY HELIPAD
9325 GUNSTON ROAD
FT BELVOIR, VA 22060
Manager: Phone 205-255-2086

Additional Remarks

HELIPADS LOCATED ON ENDS OF RWYS.
FUEL: J8
SEE FLIP AP/1, FLT HAZ, FORT RUCKER.
RSTD - NO TRAN ACFT. NO USABLE RWY ON LOWE AHP AT THIS TIME.
CAUTION: INTS STU TRNG.
WX SVC AVAIL 1200-2000Z++ MON-FRI EXC HOL. PMSV METRO 243.35
WHEN ATCT CLSD, FOR CD CTC JACKSONVILLE ARTCC AT 904-845-1592.

Instrument Procedures

NOTE: All procedures below are presented as PDF files. If you need a reader for these files, you should download the free Adobe Reader.

NOT FOR NAVIGATION. Please procure official charts for flight.
FAA instrument procedures published for use from 07 November 2019 at 0901Z to 05 December 2019 at 0900Z.

 
IAPs - Instrument Approach Procedures
COPTER RNAV (GPS) 069   download (79KB)
COPTER VOR 069   download (82KB)
COPTER NDB 066   download (85KB)
NOTE: Special Take-Off Minimums/Departure Procedures apply   download (329KB)

Other nearby airports with instrument procedures:

KHEY - Hanchey Army Heliport (Fort Rucker) (5 nm E)
KOZR - Cairns Army Airfield (Fort Rucker) (5 nm S)
71J - Ozark-Blackwell Field Airport (8 nm NE)
KEDN - Enterprise Municipal Airport (8 nm SW)
KDHN - Dothan Regional Airport (16 nm E)
33J - Geneva Municipal Airport (19 nm S)
 
Loc | Ops | Rwys | IFR | FBO | Links
Com | Nav | Svcs | Stats | Notes
Area around KLOR (Lowe Army Heliport (Fort Rucker))
 
Road maps at: MapQuest Bing Google
 
Aerial photo
WARNING: Photo may not be current or correct
Aerial photo of KLOR (Lowe Army Heliport (Fort Rucker))
Do you have a better or more recent aerial photo of Lowe Army Heliport (Fort Rucker) that you would like to share? If so, please send us your photo.

 
Sectional chart

 
Airport distance calculator
Flying to Lowe Army Heliport (Fort Rucker)? Find the distance to fly.

From to KLOR

Sunrise and sunset
Times for 15-Nov-2019
 Local
(UTC-6)
 Zulu
(UTC)
Morning civil twilight05:4611:46
Sunrise06:1212:12
Sunset16:4422:44
Evening civil twilight17:0923:09

Current date and time
Zulu (UTC)  15-Nov-2019 06:44:16
Local (UTC-6)  15-Nov-2019 00:44:16
 
METAR
KLOR 150639Z AUTO 01005KT 9SM OVC005 07/07 A3014 RMK AO2 SLP190
KOZR 
5nm S 
150616Z AUTO 02009KT 10SM OVC005 07/06 A3014 RMK AO2 SLP210
KHEY 
5nm E 
150631Z AUTO 02006KT 9SM OVC006 07/07 A3014 RMK AO2 RAE06 SLP210
KSXS 
5nm W 
150638Z AUTO 13006KT 8SM -RA OVC004 06/06 A3014 RMK AO2 RAE17RAB38 SLP210
KEDN 
8nm SW 
150635Z AUTO 01004KT 10SM -DZ OVC005 06/06 A3015 RMK AO2 T00610061
KDHN 
16nm E 
150603Z AUTO 35007KT 4SM -RA BR OVC004 07/06 A3019 RMK AO2 P0000 T00720061
TAF
KOZR 
5nm S 
150335Z 1503/1606 36006KT 4800 -RA OVC005 QNH3012INS TEMPO 1503/1509 OVC006 BECMG 1511/1512 35006KT 9000 -DZ OVC006 QNH3009INS BECMG 1518/1519 34009KT 8000 -RA OVC006 QNH3010INS BECMG 1602/1603 34006KT 9999 NSW SCT010 BKN065 QNH3012INS TX12/1518Z TN06/1507Z
KDHN 
16nm E 
150520Z 1506/1606 01006KT 2SM -RA BR OVC004 FM151600 35011KT P6SM -RA OVC007 FM160200 34011G18KT P6SM OVC015
NOTAMs
Click for the latest NOTAMs
NOTAMs are issued by the DoD/FAA and will open in a separate window not controlled by AirNav.

 

 
 

Would you like to see your business listed on this page?

 If your business provides an interesting product or service to pilots, flight crews, aircraft, or users of the Lowe Army Heliport (Fort Rucker), you should consider listing it here.  To start the listing process, click on the button below
 
Add a business
 

Other Pages about Lowe Army Heliport (Fort Rucker)

Update a link
 
Copyright © AirNav, LLC. All rights reserved. Privacy Policy  Contact